Location: Newark
(47.3150°N, 5.1150°E)
Time: 05:02:36
(UTC+00:00)

AO-7 - Pass Details

Date: 18 December 2019
Orbit: 1440 x 1458 km, 101.8° (Epoch: 20 January)

Event Time Altitude Azimuth Distance (km) Brightness Sun altitude
Rises 01:30:15 0° 30° (NNE) 4,566 ? -56.9°
Reaches altitude 10° 01:34:52 10° 53° (NE) 3,585 ? -56.3°
Maximum altitude 01:39:12 15° 85° (E) 3,213 ? -55.7°
Enters shadow 01:40:46 14° 98° (E) 3,264 ? -55.5°
